Location: Newark
(60.6561°N, 46.5772°E)
Time: 09:40:11
(UTC+00:00)

Tiros 1 - All Passes

Search period start: 16 October 2019 00:00
Search period end: 26 October 2019 00:00
Orbit: 630 x 664 km, 48.4° (Epoch: 15 October)

Date Brightness Start Highest point End Pass type
(mag) Time Alt. Az. Time Alt. Az. Time Alt. Az.
16 Oct - 01:49:33 10° SSW 01:52:37 17° SSE 01:55:40 10° SE visible
16 Oct - 03:30:20 10° SW 03:33:39 19° S 03:36:57 10° SE daylight
16 Oct - 05:12:48 10° SW 05:14:33 12° SSW 05:16:19 10° S daylight
17 Oct - 00:35:03 10° S 00:37:11 13° SSE 00:39:19 10° SE visible
17 Oct - 02:14:47 10° SW 02:18:08 19° S 02:21:29 10° SE visible
17 Oct - 03:56:13 10° SW 03:59:10 16° SSW 04:02:05 10° SSE daylight
18 Oct - 00:59:38 10° SSW 01:02:38 17° SSE 01:05:38 10° SE visible
18 Oct - 02:40:20 10° SW 02:43:40 19° S 02:47:00 10° SE visible
18 Oct - 04:22:38 10° SW 04:24:36 12° SSW 04:26:32 10° S daylight
18 Oct - 23:45:16 10° S 23:47:14 12° SSE 23:49:12 10° SE visible
19 Oct - 01:24:50 10° SW 01:28:09 19° S 01:31:29 10° SE visible
19 Oct - 03:06:11 10° SW 03:09:11 17° SSW 03:12:11 10° SSE daylight
20 Oct - 00:09:44 10° SSW 00:12:40 16° SSE 00:15:36 10° SE visible
20 Oct - 01:50:21 10° SW 01:53:41 19° S 01:57:02 10° SE visible
20 Oct - 03:32:31 10° SW 03:34:38 13° SSW 03:36:45 10° S daylight
20 Oct - 22:55:30 10° S 22:57:16 12° SSE 22:59:02 10° SE visible
21 Oct - 00:34:52 10° SW 00:38:10 19° S 00:41:29 10° SE visible
21 Oct - 02:16:10 10° SW 02:19:13 17° SSW 02:22:16 10° SSE visible
21 Oct - 23:19:50 10° SSW 23:22:42 16° SSE 23:25:34 10° SE visible
22 Oct - 01:00:22 10° SW 01:03:43 19° S 01:07:04 10° SE visible
22 Oct - 02:42:25 10° SW 02:44:40 13° SSW 02:46:55 10° S visible
22 Oct - 22:05:46 10° S 22:07:18 11° SSE 22:08:51 10° SE night (unlit)
22 Oct - 23:44:55 10° SW 23:48:12 18° S 23:51:29 10° SE visible
23 Oct - 01:26:09 10° SW 01:29:15 17° SSW 01:32:20 10° SSE visible
23 Oct - 22:29:57 10° SSW 22:32:44 15° SSE 22:35:30 10° SE visible
24 Oct - 00:10:23 10° SW 00:13:44 19° S 00:17:06 10° SE visible
24 Oct - 01:52:20 10° SW 01:54:43 14° SSW 01:57:05 10° S visible
24 Oct - 21:16:06 10° SSE 21:17:21 11° SSE 21:18:36 10° SE night (unlit)
24 Oct - 22:54:59 10° SW 22:58:13 18° S 23:01:28 10° SE visible
25 Oct - 00:36:08 10° SW 00:39:16 17° SSW 00:42:24 10° SSE visible
25 Oct - 21:40:05 10° SSW 21:42:45 15° SSE 21:45:27 10° SE night (unlit)
25 Oct - 23:20:25 10° SW 23:23:45 19° S 23:27:07 10° SE visible
